When you browse on this site, cookies collect data to enhance your experience and personalize the content and advertising you see.
Visit our Privacy Policy to learn more. By continuing to use the site, you agree to this use of cookies and data.
  • în România
  • Lista ţărilor
  • Pe 7 zile
  • Temperatura apei
  • Meteo pe hartă
  • Widget-uri
  • user-avatar
    Intrare

    Meteo pe oră la Makeni

    Astăzi, 3 Aprilie, Vineri

    Timp Temperatura Precipitaţii Vânt Presiune Umiditate
    00:00 +29°C° 0 mm 1 m/s 750 mmHg 78%
    01:00 +29°C° 0 mm 1 m/s 749 mmHg 80%
    02:00 +26°C° 0 mm 0 m/s 749 mmHg 82%
    03:00 +26°C° 0 mm 0 m/s 749 mmHg 84%
    04:00 +26°C° 0 mm 0 m/s 749 mmHg 85%
    05:00 +25°C° 0 mm 0 m/s 749 mmHg 87%
    06:00 +29°C° 0 mm 1 m/s 750 mmHg 80%
    07:00 +30°C° 0 mm 1 m/s 750 mmHg 74%
    08:00 +31°C° 0 mm 2 m/s 750 mmHg 67%
    09:00 +35°C° 0 mm 2 m/s 750 mmHg 58%
    10:00 +36°C° 0 mm 1 m/s 750 mmHg 48%
    11:00 +40°C° 0 mm 1 m/s 750 mmHg 39%
    12:00 +42°C° 0 mm 1 m/s 749 mmHg 34%
    13:00 +43°C° 0 mm 1 m/s 748 mmHg 29%
    14:00 +45°C° 0 mm 1 m/s 747 mmHg 24%
    15:00 +44°C° 0 mm 1 m/s 747 mmHg 24%
    16:00 +43°C° 0 mm 1 m/s 746 mmHg 25%
    17:00 +38°C° 0 mm 0 m/s 746 mmHg 26%
    18:00 +39°C° 0 mm 1 m/s 747 mmHg 37%
    19:00 +36°C° 0 mm 2 m/s 748 mmHg 49%
    20:00 +33°C° 0 mm 3 m/s 748 mmHg 60%
    21:00 +31°C° 0 mm 3 m/s 749 mmHg 64%
    22:00 +30°C° 0 mm 2 m/s 749 mmHg 68%
    23:00 +30°C° 0 mm 2 m/s 749 mmHg 72%

    Mâine, 4 Aprilie, Sâmbătă

    Timp Temperatura Precipitaţii Vânt Presiune Umiditate
    00:00 +29°C° 0 mm 2 m/s 749 mmHg 74%
    01:00 +29°C° 0 mm 2 m/s 749 mmHg 76%
    02:00 +29°C° 0 mm 1 m/s 749 mmHg 78%
    03:00 +29°C° 0 mm 1 m/s 749 mmHg 79%
    04:00 +28°C° 0 mm 1 m/s 749 mmHg 81%
    05:00 +28°C° 0 mm 1 m/s 749 mmHg 82%
    06:00 +29°C° 0 mm 1 m/s 750 mmHg 77%
    07:00 +30°C° 0 mm 1 m/s 750 mmHg 72%
    08:00 +31°C° 0 mm 2 m/s 751 mmHg 67%
    09:00 +34°C° 0 mm 2 m/s 750 mmHg 60%
    10:00 +35°C° 0 mm 2 m/s 750 mmHg 54%
    11:00 +37°C° 0 mm 2 m/s 750 mmHg 47%
    12:00 +38°C° 0 mm 2 m/s 749 mmHg 45%
    13:00 +37°C° 0 mm 1 m/s 748 mmHg 43%
    14:00 +39°C° 0 mm 1 m/s 748 mmHg 41%
    15:00 +38°C° 0 mm 2 m/s 748 mmHg 41%
    16:00 +38°C° 0 mm 2 m/s 747 mmHg 41%
    17:00 +38°C° 0 mm 2 m/s 747 mmHg 42%
    18:00 +36°C° 0 mm 2 m/s 748 mmHg 48%
    19:00 +35°C° 0 mm 2 m/s 748 mmHg 54%
    20:00 +32°C° 0 mm 2 m/s 749 mmHg 60%
    21:00 +31°C° 0 mm 2 m/s 749 mmHg 63%
    22:00 +31°C° 0 mm 1 m/s 749 mmHg 67%
    23:00 +30°C° 0 mm 1 m/s 750 mmHg 71%

    Poimâine, 5 Aprilie, Duminică

    Timp Temperatura Precipitaţii Vânt Presiune Umiditate
    00:00 +29°C° 0 mm 1 m/s 749 mmHg 74%
    01:00 +29°C° 0 mm 1 m/s 749 mmHg 76%
    02:00 +28°C° 0 mm 1 m/s 749 mmHg 79%
    03:00 +26°C° 0 mm 0 m/s 749 mmHg 81%
    04:00 +26°C° 0 mm 0 m/s 749 mmHg 82%
    05:00 +25°C° 0 mm 0 m/s 749 mmHg 84%
    06:00 +27°C° 0 mm 0 m/s 750 mmHg 78%
    07:00 +30°C° 0 mm 1 m/s 751 mmHg 71%
    08:00 +32°C° 0 mm 1 m/s 751 mmHg 65%
    09:00 +34°C° 0 mm 1 m/s 751 mmHg 57%
    10:00 +37°C° 0 mm 1 m/s 750 mmHg 48%
    11:00 +40°C° 0 mm 1 m/s 750 mmHg 40%
    12:00 +41°C° 0 mm 1 m/s 749 mmHg 36%
    13:00 +43°C° 0 mm 1 m/s 749 mmHg 31%
    14:00 +44°C° 0 mm 1 m/s 748 mmHg 27%
    15:00 +43°C° 0 mm 1 m/s 748 mmHg 29%
    16:00 +41°C° 0 mm 2 m/s 747 mmHg 31%
    17:00 +40°C° 0 mm 2 m/s 747 mmHg 34%
    18:00 +38°C° 0 mm 3 m/s 748 mmHg 43%
    19:00 +36°C° 0 mm 3 m/s 748 mmHg 52%
    20:00 +33°C° 0 mm 3 m/s 749 mmHg 62%
    21:00 +32°C° 0 mm 2 m/s 749 mmHg 65%
    22:00 +31°C° 0 mm 2 m/s 750 mmHg 68%
    23:00 +30°C° 0 mm 1 m/s 750 mmHg 72%

    6 Aprilie, Luni

    Timp Temperatura Precipitaţii Vânt Presiune Umiditate
    00:00 +30°C° 0 mm 1 m/s 750 mmHg 73%
    01:00 +29°C° 0 mm 1 m/s 750 mmHg 75%
    02:00 +29°C° 0 mm 1 m/s 750 mmHg 77%
    03:00 +29°C° 0 mm 1 m/s 750 mmHg 79%
    04:00 +28°C° 0 mm 1 m/s 750 mmHg 81%
    05:00 +26°C° 0 mm 0 m/s 749 mmHg 83%
    06:00 +29°C° 0 mm 1 m/s 750 mmHg 77%
    07:00 +31°C° 0 mm 1 m/s 750 mmHg 71%
    08:00 +32°C° 0 mm 1 m/s 751 mmHg 65%
    09:00 +33°C° 0 mm 1 m/s 750 mmHg 60%
    10:00 +34°C° 0 mm 1 m/s 750 mmHg 55%
    11:00 +35°C° 0 mm 1 m/s 750 mmHg 51%
    12:00 +37°C° 0 mm 1 m/s 749 mmHg 44%
    13:00 +40°C° 0 mm 1 m/s 748 mmHg 37%
    14:00 +42°C° 0 mm 1 m/s 748 mmHg 31%
    15:00 +41°C° 0 mm 2 m/s 747 mmHg 32%
    16:00 +41°C° 0 mm 2 m/s 747 mmHg 33%
    17:00 +40°C° 0 mm 2 m/s 747 mmHg 34%
    18:00 +38°C° 0 mm 3 m/s 748 mmHg 44%
    19:00 +35°C° 0 mm 3 m/s 748 mmHg 53%
    20:00 +33°C° 0 mm 3 m/s 749 mmHg 63%
    21:00 +31°C° 0.1 mm 2 m/s 750 mmHg 66%
    22:00 +30°C° 0.1 mm 1 m/s 750 mmHg 70%
    23:00 +29°C° 0.1 mm 1 m/s 750 mmHg 74%

    7 Aprilie, Marţi

    Timp Temperatura Precipitaţii Vânt Presiune Umiditate
    00:00 +29°C° 0 mm 1 m/s 750 mmHg 76%
    01:00 +29°C° 0 mm 1 m/s 750 mmHg 78%
    02:00 +28°C° 0 mm 1 m/s 749 mmHg 80%
    03:00 +26°C° 0 mm 0 m/s 749 mmHg 82%
    04:00 +26°C° 0 mm 0 m/s 749 mmHg 83%
    05:00 +25°C° 0 mm 0 m/s 750 mmHg 85%
    06:00 +27°C° 0 mm 0 m/s 750 mmHg 78%
    07:00 +30°C° 0 mm 1 m/s 750 mmHg 71%
    08:00 +32°C° 0 mm 1 m/s 751 mmHg 64%
    09:00 +33°C° 0 mm 1 m/s 751 mmHg 58%
    10:00 +35°C° 0 mm 1 m/s 750 mmHg 52%
    11:00 +37°C° 0 mm 1 m/s 750 mmHg 46%
    12:00 +37°C° 0.1 mm 1 m/s 750 mmHg 46%
    13:00 +37°C° 0.1 mm 1 m/s 749 mmHg 46%
    14:00 +37°C° 0.1 mm 1 m/s 748 mmHg 46%
    15:00 +37°C° 0.1 mm 1 m/s 748 mmHg 46%
    16:00 +36°C° 0.1 mm 1 m/s 748 mmHg 46%
    17:00 +36°C° 0.1 mm 1 m/s 748 mmHg 46%
    18:00 +33°C° 0.9 mm 1 m/s 749 mmHg 58%
    19:00 +31°C° 0.9 mm 1 m/s 749 mmHg 70%
    20:00 +28°C° 0.9 mm 1 m/s 750 mmHg 82%
    21:00 +28°C° 0.1 mm 1 m/s 750 mmHg 83%
    22:00 +28°C° 0.1 mm 1 m/s 750 mmHg 85%
    23:00 +27°C° 0.1 mm 1 m/s 750 mmHg 86%

    8 Aprilie, Miercuri

    Timp Temperatura Precipitaţii Vânt Presiune Umiditate
    00:00 +27°C° 0 mm 1 m/s 750 mmHg 87%
    01:00 +27°C° 0 mm 1 m/s 749 mmHg 88%
    02:00 +25°C° 0 mm 0 m/s 749 mmHg 89%
    03:00 +27°C° 0 mm 1 m/s 749 mmHg 90%
    04:00 +26°C° 0 mm 1 m/s 749 mmHg 92%
    05:00 +26°C° 0 mm 1 m/s 749 mmHg 93%
    06:00 +27°C° 0 mm 1 m/s 749 mmHg 86%
    07:00 +29°C° 0 mm 1 m/s 750 mmHg 79%
    08:00 +30°C° 0 mm 1 m/s 750 mmHg 73%
    09:00 +32°C° 0 mm 1 m/s 750 mmHg 65%
    10:00 +34°C° 0 mm 1 m/s 750 mmHg 58%
    11:00 +36°C° 0 mm 1 m/s 750 mmHg 50%
    12:00 +36°C° 0 mm 1 m/s 749 mmHg 48%
    13:00 +37°C° 0 mm 1 m/s 749 mmHg 46%
    14:00 +37°C° 0 mm 1 m/s 748 mmHg 44%
    15:00 +38°C° 0.1 mm 2 m/s 748 mmHg 46%
    16:00 +37°C° 0.1 mm 3 m/s 748 mmHg 48%
    17:00 +36°C° 0.1 mm 3 m/s 748 mmHg 49%
    18:00 +34°C° 1.5 mm 3 m/s 749 mmHg 58%
    19:00 +32°C° 1.5 mm 4 m/s 749 mmHg 68%
    20:00 +29°C° 1.5 mm 4 m/s 750 mmHg 77%
    21:00 +29°C° 0.4 mm 2 m/s 751 mmHg 78%
    22:00 +28°C° 0.4 mm 1 m/s 751 mmHg 79%
    23:00 +26°C° 0.4 mm 0 m/s 751 mmHg 80%
    Arată mai mult